This is the latest recevied weather packets stored in our database for station/object JH5EWP-13. If no packets are shown the sender has not sent any weather packets the latest 10 day(s).
| Time | Temp. | Humidity | Pressure | Rain* | Wind** | Luminosity | Snow |
|---|---|---|---|---|---|---|---|
| 1788454340 | 23.33° C | 50% | 999.7 hPa | 1.02 mm | - | - | - |
| 1788452540 | 23.33° C | 50% | 999.4 hPa | 1.27 mm | - | - | - |
| 1788450741 | 23.33° C | 50% | 1000.1 hPa | 0.76 mm | - | - | - |
| 1788448941 | 23.33° C | 50% | 1000.4 hPa | 0.76 mm | - | - | - |
| 1788447141 | 23.33° C | 50% | 1000.1 hPa | 0.76 mm | - | - | - |
| 1788445340 | 23.33° C | 50% | 1000 hPa | 0.25 mm | - | - | - |
| 1788443541 | 23.33° C | 50% | 1000.1 hPa | 0 mm | - | - | - |
| 1788441740 | 23.33° C | 50% | 1000.5 hPa | 0.25 mm | - | - | - |
| 1788439940 | 23.33° C | 50% | 1000.3 hPa | 0.51 mm | - | - | - |
| 1788438142 | 23.33° C | 49% | 1000.9 hPa | 1.27 mm | - | - | - |
| 1788436341 | 23.33° C | 48% | 1000.9 hPa | 2.03 mm | - | - | - |
| 1788434542 | 23.33° C | 47% | 1001.2 hPa | 1.78 mm | - | - | - |
| 1788432741 | 23.33° C | 47% | 1001.2 hPa | 2.29 mm | - | - | - |
| 1788430941 | 23.89° C | 47% | 1001 hPa | 1.27 mm | - | - | - |
| 1788429141 | 23.89° C | 47% | 1000.9 hPa | 0.25 mm | - | - | - |
| 1788427340 | 23.89° C | 47% | 1001 hPa | 0.25 mm | - | - | - |
| 1788425542 | 24.44° C | 47% | 1001 hPa | 0 mm | - | - | - |
| 1788423741 | 24.44° C | 47% | 1001 hPa | 0 mm | - | - | - |
| 1788421941 | 24.44° C | 47% | 1001 hPa | 0.25 mm | - | - | - |
| 1788420141 | 25° C | 47% | 1000.7 hPa | 0.51 mm | - | - | - |
| 1788418341 | 24.44° C | 47% | 1000.3 hPa | 0.76 mm | - | - | - |
| 1788416541 | 23.89° C | 47% | 1001 hPa | 1.78 mm | - | - | - |
| 1788414740 | 24.44° C | 47% | 1001 hPa | 2.29 mm | - | - | - |
| 1788412941 | 24.44° C | 47% | 1001.4 hPa | 1.78 mm | - | - | - |
| 1788411141 | 25.56° C | 47% | 1001.3 hPa | 2.03 mm | - | - | - |
* Rain latest hour (hover to see other rain measurements)
** Current wind speed in m/s (hover to see current wind gust speed)